Content
SEND FEEDBACK

Daily
Averages
Monthly
Summary
United States of America

ST. LOUIS, MISSOURI


Home > North America > United States > Missouri
Elevation: 535 feet     Latitude: 38 45N     Longitude: 090 22W

WEATHER
 
SELECT A DAY
Number of Records: 196,619;   Date Range: 1/1/95 - 9/16/14
 
SHARE

PRINT THIS DATA

[ ← Previous Day ]
WEATHER ALMANAC - JANUARY 29, 2014
[ Next Day → ]
[ °C ]   °F
Weather ElementAverageHighLow
Temperature21.4 °F36 °F (3:54 pm)1.9 °F (3:54 am)
Dewpoint-0.1 °F3.9 °F (11:54 pm)-4 °F (1:54 am)
Humidity44 %80 % (3:54 am)23 % (2:54 pm)
Barometer30.29 in30.40 in (1:54 am)30.11 in (11:54 pm)
Wind Speed6.5 mph15 mph (11:54 am)
Wind Gust24.2 mph (12:54 pm)
Weather ElementAverage
Visibility10 mi
Wind DirectionSSE (140.9 °)

Weather ElementTotal
Precipitation0.01 in
Heating Degree Days46.1 (Base 65)
Averaged from 23 records on January 29, 2014
WEATHER CONDITIONS BREAKOUT
WIND DIRECTION BREAKOUT
WEATHER BY HOUR - JANUARY 29, 2014
[ °C ]   °F
Local TimeTemperatureDewpointHumidityBarometerVisibilityWind DirectionWind SpeedGust SpeedPrecipitationEventsConditions
1:54 AM3.0 °F-4.0 °F73 %30.40 in10.0 miCalmClear
2:54 AM3.0 °F-4.0 °F73 %30.40 in10.0 miCalmClear
3:54 AM1.9 °F-2.9 °F80 %30.38 in10.0 miCalmClear
4:54 AM3.0 °F-4.0 °F73 %30.38 in10.0 miCalmClear
5:54 AM1.9 °F-4.0 °F76 %30.38 in10.0 miCalmClear
6:54 AM3.0 °F-4.0 °F73 %30.39 in10.0 miCalmClear
7:54 AM7.0 °F-0.9 °F70 %30.39 in10.0 miCalmClear
8:54 AM17.1 °F0.0 °F47 %30.39 in10.0 miWSW (240°)8.1 mphClear
9:54 AM21.0 °F1.0 °F42 %30.38 in10.0 miSW (230°)11.5 mphClear
10:54 AM26.1 °F1.0 °F34 %30.37 in10.0 miSW (220°)8.1 mphClear
11:54 AM30.0 °F0.0 °F28 %30.35 in10.0 miSSW (200°)15.0 mph20.7 mphClear
12:54 PM32.0 °F-0.9 °F24 %30.32 in10.0 miSW (230°)15.0 mph24.2 mph0.01 inClear
1:54 PM33.1 °F0.0 °F24 %30.29 in10.0 miSW (230°)10.4 mph17.3 mphClear
2:54 PM35.1 °F0.0 °F23 %30.26 in10.0 miSW (230°)9.2 mph23.0 mphClear
3:54 PM36.0 °F1.0 °F23 %30.24 in10.0 miSW (230°)8.1 mph18.4 mphClear
4:54 PM34.0 °F1.0 °F25 %30.23 in10.0 miSouth (180°)5.8 mphClear
5:54 PM30.0 °F1.9 °F30 %30.21 in10.0 miSSE (160°)5.8 mphClear
6:54 PM28.9 °F1.9 °F32 %30.21 in10.0 miSSE (160°)4.6 mphClear
7:54 PM30.0 °F1.9 °F30 %30.18 in10.0 miSouth (180°)8.1 mphClear
8:54 PM30.0 °F1.9 °F30 %30.16 in10.0 miSouth (180°)8.1 mphClear
9:54 PM30.0 °F3.0 °F32 %30.14 in10.0 miSouth (190°)12.7 mph18.4 mphClear
10:54 PM28.0 °F3.0 °F34 %30.13 in10.0 miSouth (190°)10.4 mphClear
11:54 PM27.0 °F3.9 °F37 %30.11 in10.0 miSouth (190°)9.2 mph17.3 mphClear
Hourly data recorded from KSUS, located miles away from St. Louis, Missouri







STORIES FROM OUR PARTNERS